sat.trackr.live / text

‹ back to catalog

GSAT0211 (GALILEO 14)

NORAD 41549 · 2016-030A

PAYLOAD ACTIVE UNKNOWN

§ Identity

Operator
Country
ESA
Launch date
2016-05-24
Launch site
FRGUI
Launch vehicle
Mass (kg)
RCS (m²)
6.60

Purposes: earth_obs, nav

External: N2YO · Heavens-Above · Gunter

§ Orbital elements

Epoch: 2026-05-23T03:50:15.655488Z

Period
844.70 min
Inclination
55.1018°
Eccentricity
0.0002676
Mean motion
1.70474082 rev/d
Perigee alt
23,214.3 km
Apogee alt
23,230.1 km
Semi-major
29,600.3 km
B*
0.0000e+0
RAAN
222.3833°
Arg perigee
335.5312°
Mean anomaly
24.5109°
Rev number
6,224

§ Raw data

GSAT0211 (GALILEO 14)1 41549U 16030A   26143.15990342 -.00000014  00000+0  00000+0 0  99962 41549  55.1018 222.3833 0002676 335.5312  24.5109  1.70474082 62249

JSON: /api/v1/satellites/41549 · /tle

For live sub-satellite position, see the globe view (requires WebGL).

§ Visibility from observer

Set your observer location to see the next 7 days of passes ≥ 10°. The values pass through the URL so the page stays shareable.

No JS? Fill the form by hand. The geolocation button needs JavaScript.